Location: Cercedilla
(40.7379°N, 4.0638°W)
Time: 17:22:49
(UTC+00:00)

STARLINK-24 - Pass Details

Date: 07 June 2020
Orbit: 525 x 527 km, 53.0° (Epoch: 09 July)

Event Time Altitude Azimuth Distance (km) Brightness Sun altitude
Exits shadow 03:04:20 28° 239° (WSW) 1,006 4.4 -15.3°
Maximum altitude 03:06:21 78° 322° (NW) 542 3.5 -15.1°
Drops below altitude 10° 03:10:22 10° 49° (NE) 1,771 7.6 -14.6°
Sets 03:12:36 0° 51° (NE) 2,664 8.9 -14.3°
